カタログに戻る

JACK-003

運用中科学SSO
NORAD 66654·PAYLOAD·🇰🇷 South Korea

打ち上げ Nov 26, 2025 から Naro Space Center

Loading…

次のパス (今後24時間)

TLE

最新Source: Space-Track

元期: Sep 14, 2026, 05:38 UTC

1 66654U 25274E   26257.23475764  .00001523  00000-0  15040-3 0  9991
2 66654  97.7483 185.0888 0014534  63.4092 296.8615 14.93354922 43507

AllMySatでJACK-003をリアルタイム追跡

Download on the App Store